Regional Weather Roundup
Issued by NWS

Home | Current Version | Previous Version | Graphics & Text | Print | Product List | Glossary On
Versions: 1 2 3 4 5 6 7 8 9 10 11 12 13 14 15 16 17 18 19 20 21 22 23 24 25 26 27 28 29 30 31 32 33 34 35 36 37 38 39 40 41 42 43 44 45 46 47 48 49 50
000
ASUS45 KSLC 061510
RWRUT

UTAH REGIONAL WEATHER ROUNDUP
NATIONAL WEATHER SERVICE SALT LAKE CITY UT
900 AM MDT WED MAY 06 2015

UTZ001>011-023>025-061600-

NORTHERN UTAH

CITY           SKY/WX    TMP DP  RH WIND       PRES   REMARKS
HILL AFB       PTSUNNY   56  49  75 S6        29.83R
LOGAN          SUNNY     51  46  83 CALM      29.82S
OGDEN          PTSUNNY   57  48  72 S6        29.81
PROVO AIRPORT  NOT AVBL
SALT LAKE CITY PTSUNNY   57  49  74 S13       29.81S
VERNAL         CLOUDY    51  48  89 CALM      29.81R
WENDOVER       PTSUNNY   55  45  67 NE9       29.81S
HEBER CITY     CLOUDY    48  45  87 CALM      29.85F
WEST JORDAN    PTSUNNY   55  52  88 SE12      29.84R

$$

UTZ012>022-026-027-061600-

SOUTHERN/CENTRAL UTAH

CITY           SKY/WX    TMP DP  RH WIND       PRES   REMARKS
BLANDING       PTSUNNY   51  46  82 S7        29.98R
BRYCE CANYON   CLOUDY    44  39  82 W8        29.96S
CEDAR CITY     PTSUNNY   50  45  83 SW5       29.89R
DELTA          CLOUDY    52  46  81 S9        29.85S
HANKSVILLE     PTSUNNY   57  50  77 CALM      29.84R
MILFORD        CLOUDY    51  46  83 SW13      29.85R
MOAB/CYNLANDS  PTSUNNY   58  52  80 NW3       29.79S
PRICE          CLOUDY    51  43  74 CALM      29.84R
ST GEORGE      CLOUDY    61  46  59 E8        29.86S
KANAB          CLOUDY    52  46  82 CALM      29.95R

$$

REGIONAL REPORTS     COLORADO/ARIZONA

CITY           SKY/WX    TMP DP  RH WIND       PRES   REMARKS
CRAIG, CO      LGT RAIN  48  45  89 W14       29.82R FOG
GRAND JUNCTION CLOUDY    53  51  93 CALM      29.81R
RIFLE          LGT RAIN  48  45  89 NE3       29.84R
MONTROSE       CLOUDY    52  46  80 SE9       29.87S
CORTEZ         CLOUDY    52  45  77 SW8       29.93R
PAGE, AZ       MOSUNNY   59  46  62 CALM      29.87S
GRAND CANYON   CLOUDY    48  39  71 SW8       29.99R
KINGMAN        SUNNY     66  35  31 SW7       29.84R
FLAGSTAFF      MOSUNNY   46  43  89 SW13      30.00S

$$

REGIONAL REPORTS    NEVADA/IDAHO/WYOMING

CITY           SKY/WX    TMP DP  RH WIND       PRES   REMARKS
LAS VEGAS, NV  MOSUNNY   69  42  37 S8        29.74R
ELY            CLOUDY    50  41  71 S10       29.87F
ELKO           PTSUNNY   47  25  42 N3        29.82S
POCATELLO, ID  MOSUNNY   48  23  37 SW21      29.86R
BURLEY         PTSUNNY   48  25  40 W14       29.84R
EVANSTON, WY   CLOUDY    45  43  93 SW8       29.88R
ROCK SPRINGS   PTSUNNY   50  41  71 W13       29.82S
KEMMERER       CLOUDY    46  36  66 W16       29.86S

$$


USA.gov is the U.S. government's official web portal to all federal, state and local government web resources and services.